TimeMDT,TemperatureF,Dew PointF,Humidity,Sea Level PressureIn,VisibilityMPH,Wind Direction,Wind SpeedMPH,Gust SpeedMPH,PrecipitationIn,Events,Conditions,WindDirDegrees,DateUTC
12:52 AM,28.0,12.9,53,30.17,10.0,NNW,31.1,41.4,N/A,,Clear,330,2013-03-12 06:52:00
1:52 AM,27.0,12.0,53,30.18,10.0,NNW,23.0,32.2,N/A,,Clear,330,2013-03-12 07:52:00
2:52 AM,26.1,8.1,47,30.21,10.0,NNW,20.7,34.5,N/A,,Clear,330,2013-03-12 08:52:00
3:52 AM,25.0,6.1,45,30.22,10.0,NNW,25.3,35.7,N/A,,Clear,330,2013-03-12 09:52:00
4:52 AM,24.1,6.1,46,30.25,10.0,NW,18.4,-,N/A,,Clear,320,2013-03-12 10:52:00
5:52 AM,24.1,5.0,44,30.28,10.0,NW,25.3,29.9,N/A,,Clear,320,2013-03-12 11:52:00
6:52 AM,23.0,3.0,42,30.30,10.0,NNW,23.0,28.8,N/A,,Clear,330,2013-03-12 12:52:00
7:52 AM,24.1,3.0,40,30.32,10.0,NNW,20.7,-,N/A,,Clear,340,2013-03-12 13:52:00
8:52 AM,28.0,3.0,34,30.34,10.0,NNW,26.5,32.2,N/A,,Clear,330,2013-03-12 14:52:00
9:52 AM,32.0,3.9,31,30.34,10.0,NNW,25.3,34.5,N/A,,Clear,330,2013-03-12 15:52:00
10:52 AM,34.0,3.0,27,30.34,10.0,NNW,31.1,40.3,N/A,,Clear,330,2013-03-12 16:52:00
11:52 AM,36.0,3.9,26,30.34,10.0,NNW,27.6,34.5,N/A,,Clear,330,2013-03-12 17:52:00
12:52 PM,37.9,3.9,24,30.34,10.0,NNW,19.6,34.5,N/A,,Clear,330,2013-03-12 18:52:00
1:52 PM,39.9,3.9,22,30.32,10.0,NNW,21.9,27.6,N/A,,Clear,340,2013-03-12 19:52:00
2:52 PM,39.9,3.9,22,30.30,10.0,North,16.1,28.8,N/A,,Clear,350,2013-03-12 20:52:00
3:52 PM,41.0,3.0,21,30.28,10.0,North,23.0,27.6,N/A,,Clear,350,2013-03-12 21:52:00
4:52 PM,41.0,3.0,21,30.26,10.0,North,18.4,-,N/A,,Clear,10,2013-03-12 22:52:00
5:52 PM,37.9,1.9,22,30.29,10.0,North,11.5,-,N/A,,Clear,10,2013-03-12 23:52:00
6:52 PM,30.0,1.0,29,30.32,10.0,ENE,3.5,-,N/A,,Clear,70,2013-03-13 00:52:00
7:52 PM,23.0,-0.0,37,30.34,10.0,ENE,6.9,-,N/A,,Clear,70,2013-03-13 01:52:00
8:52 PM,23.0,1.9,40,30.33,10.0,Calm,Calm,-,N/A,,Clear,0,2013-03-13 02:52:00
9:52 PM,21.9,1.0,40,30.32,10.0,Calm,Calm,-,N/A,,Clear,0,2013-03-13 03:52:00
10:52 PM,23.0,3.0,42,30.31,10.0,South,3.5,-,N/A,,Overcast,180,2013-03-13 04:52:00
11:52 PM,21.0,3.0,46,30.29,10.0,SE,6.9,-,N/A,,Mostly Cloudy,130,2013-03-13 05:52:00